Time,TemperatureF,DewpointF,PressureIn,WindDirection,WindDirectionDegrees,WindSpeedMPH,WindSpeedGustMPH,Humidity,HourlyPrecipIn,Conditions,Clouds,dailyrainin,SolarRadiationWatts/m^2,SoftwareType,DateUTC
2013-02-05 00:01:00,34.0,24.0,-100.00,WNW,303,12.0,29.0,67,0.00,,,0.00,0.000000,,2013-02-05 07:01:00,
2013-02-05 00:11:00,34.0,24.0,-100.00,WNW,303,12.0,29.0,67,0.00,,,0.00,0.000000,,2013-02-05 07:11:00,
2013-02-05 00:22:00,34.0,24.0,-100.00,WNW,303,12.0,29.0,67,0.00,,,0.00,0.000000,,2013-02-05 07:22:00,
2013-02-05 00:32:00,34.0,24.0,-100.00,WNW,303,12.0,29.0,67,0.00,,,0.00,0.000000,,2013-02-05 07:32:00,
2013-02-05 00:40:00,33.0,24.0,-100.00,WNW,298,17.0,25.0,70,0.00,,,0.00,0.000000,,2013-02-05 07:40:00,
2013-02-05 01:01:00,33.0,24.0,-100.00,WNW,298,17.0,25.0,70,0.00,,,0.00,0.000000,,2013-02-05 08:01:00,
2013-02-05 01:11:00,33.0,24.0,-100.00,WNW,298,17.0,25.0,70,0.00,,,0.00,0.000000,,2013-02-05 08:11:00,
2013-02-05 01:21:00,33.0,24.0,-100.00,WNW,298,17.0,25.0,70,0.00,,,0.00,0.000000,,2013-02-05 08:21:00,
2013-02-05 01:31:00,33.0,24.0,-100.00,WNW,298,17.0,25.0,70,0.00,,,0.00,0.000000,,2013-02-05 08:31:00,
2013-02-05 01:40:00,33.0,23.0,-100.00,WNW,303,22.0,28.0,66,0.00,,,0.00,0.000000,,2013-02-05 08:40:00,
2013-02-05 02:02:00,33.0,23.0,-100.00,WNW,303,22.0,28.0,66,0.00,,,0.00,0.000000,,2013-02-05 09:02:00,
2013-02-05 02:11:00,33.0,23.0,-100.00,WNW,303,22.0,28.0,66,0.00,,,0.00,0.000000,,2013-02-05 09:11:00,
2013-02-05 02:21:00,33.0,23.0,-100.00,WNW,303,22.0,28.0,66,0.00,,,0.00,0.000000,,2013-02-05 09:21:00,
2013-02-05 02:32:00,33.0,23.0,-100.00,WNW,303,22.0,28.0,66,0.00,,,0.00,0.000000,,2013-02-05 09:32:00,
2013-02-05 02:40:00,32.0,22.0,-100.00,WNW,296,19.0,29.0,66,0.00,,,0.00,0.000000,,2013-02-05 09:40:00,
2013-02-05 03:02:00,32.0,22.0,-100.00,WNW,296,19.0,29.0,66,0.00,,,0.00,0.000000,,2013-02-05 10:02:00,
2013-02-05 03:11:00,32.0,22.0,-100.00,WNW,296,19.0,29.0,66,0.00,,,0.00,0.000000,,2013-02-05 10:11:00,
2013-02-05 03:21:00,32.0,22.0,-100.00,WNW,296,19.0,29.0,66,0.00,,,0.00,0.000000,,2013-02-05 10:21:00,
2013-02-05 03:32:00,32.0,22.0,-100.00,WNW,296,19.0,29.0,66,0.00,,,0.00,0.000000,,2013-02-05 10:32:00,
2013-02-05 03:40:00,30.0,20.0,-100.00,WNW,294,14.0,24.0,67,0.00,,,0.00,0.000000,,2013-02-05 10:40:00,
2013-02-05 04:01:00,30.0,20.0,-100.00,WNW,294,14.0,24.0,67,0.00,,,0.00,0.000000,,2013-02-05 11:01:00,
2013-02-05 04:11:00,30.0,20.0,-100.00,WNW,294,14.0,24.0,67,0.00,,,0.00,0.000000,,2013-02-05 11:11:00,
2013-02-05 04:22:00,30.0,20.0,-100.00,WNW,294,14.0,24.0,67,0.00,,,0.00,0.000000,,2013-02-05 11:22:00,
2013-02-05 04:32:00,30.0,20.0,-100.00,WNW,294,14.0,24.0,67,0.00,,,0.00,0.000000,,2013-02-05 11:32:00,
2013-02-05 04:40:00,29.0,19.0,-100.00,WNW,303,14.0,20.0,67,0.00,,,0.00,0.000000,,2013-02-05 11:40:00,
2013-02-05 05:01:00,29.0,19.0,-100.00,WNW,303,14.0,20.0,67,0.00,,,0.00,0.000000,,2013-02-05 12:01:00,
2013-02-05 05:12:00,29.0,19.0,-100.00,WNW,303,14.0,20.0,67,0.00,,,0.00,0.000000,,2013-02-05 12:12:00,
2013-02-05 05:22:00,29.0,19.0,-100.00,WNW,303,14.0,20.0,67,0.00,,,0.00,0.000000,,2013-02-05 12:22:00,
2013-02-05 05:32:00,29.0,19.0,-100.00,WNW,303,14.0,20.0,67,0.00,,,0.00,0.000000,,2013-02-05 12:32:00,
2013-02-05 05:40:00,28.0,19.0,-100.00,NW,318,11.0,19.0,69,0.00,,,0.00,0.000000,,2013-02-05 12:40:00,
2013-02-05 06:01:00,28.0,19.0,-100.00,NW,318,11.0,19.0,69,0.00,,,0.00,0.000000,,2013-02-05 13:01:00,
2013-02-05 06:12:00,28.0,19.0,-100.00,NW,318,11.0,19.0,69,0.00,,,0.00,0.000000,,2013-02-05 13:12:00,
2013-02-05 06:22:00,28.0,19.0,-100.00,NW,318,11.0,19.0,69,0.00,,,0.00,0.000000,,2013-02-05 13:22:00,
2013-02-05 06:32:00,28.0,19.0,-100.00,NW,318,11.0,19.0,69,0.00,,,0.00,0.000000,,2013-02-05 13:32:00,
2013-02-05 06:40:00,26.0,18.0,-100.00,WNW,285,7.0,15.0,71,0.00,,,0.00,0.000000,,2013-02-05 13:40:00,
2013-02-05 07:01:00,26.0,18.0,-100.00,WNW,285,7.0,15.0,71,0.00,,,0.00,0.000000,,2013-02-05 14:01:00,
2013-02-05 07:12:00,26.0,18.0,-100.00,WNW,285,7.0,15.0,71,0.00,,,0.00,0.000000,,2013-02-05 14:12:00,
2013-02-05 07:21:00,26.0,18.0,-100.00,WNW,285,7.0,15.0,71,0.00,,,0.00,0.000000,,2013-02-05 14:21:00,
2013-02-05 07:31:00,26.0,18.0,-100.00,WNW,285,7.0,15.0,71,0.00,,,0.00,0.000000,,2013-02-05 14:31:00,
2013-02-05 07:40:00,27.0,19.0,-100.00,NNW,332,9.0,14.0,72,0.00,,,0.00,8.000000,,2013-02-05 14:40:00,
2013-02-05 08:02:00,27.0,19.0,-100.00,NNW,332,9.0,14.0,72,0.00,,,0.00,8.000000,,2013-02-05 15:02:00,
2013-02-05 08:11:00,27.0,19.0,-100.00,NNW,332,9.0,14.0,72,0.00,,,0.00,8.000000,,2013-02-05 15:11:00,
2013-02-05 08:21:00,27.0,19.0,-100.00,NNW,332,9.0,14.0,72,0.00,,,0.00,8.000000,,2013-02-05 15:21:00,
2013-02-05 08:32:00,27.0,19.0,-100.00,NNW,332,9.0,14.0,72,0.00,,,0.00,8.000000,,2013-02-05 15:32:00,
2013-02-05 08:40:00,29.0,20.0,-100.00,West,260,7.0,17.0,69,0.00,,,0.00,80.000000,,2013-02-05 15:40:00,
2013-02-05 09:01:00,29.0,20.0,-100.00,West,260,7.0,17.0,69,0.00,,,0.00,80.000000,,2013-02-05 16:01:00,
2013-02-05 09:11:00,29.0,20.0,-100.00,West,260,7.0,17.0,69,0.00,,,0.00,80.000000,,2013-02-05 16:11:00,
2013-02-05 09:22:00,29.0,20.0,-100.00,West,260,7.0,17.0,69,0.00,,,0.00,80.000000,,2013-02-05 16:22:00,
2013-02-05 09:32:00,29.0,20.0,-100.00,West,260,7.0,17.0,69,0.00,,,0.00,80.000000,,2013-02-05 16:32:00,
2013-02-05 09:40:00,31.0,21.0,-100.00,West,268,6.0,9.0,67,0.00,,,-99.99,170.000000,,2013-02-05 16:40:00,
2013-02-05 10:01:00,31.0,21.0,-100.00,West,268,6.0,9.0,67,0.00,,,-99.99,170.000000,,2013-02-05 17:01:00,
2013-02-05 10:11:00,31.0,21.0,-100.00,West,268,6.0,9.0,67,0.00,,,-99.99,170.000000,,2013-02-05 17:11:00,
2013-02-05 10:22:00,31.0,21.0,-100.00,West,268,6.0,9.0,67,0.00,,,-99.99,170.000000,,2013-02-05 17:22:00,
2013-02-05 10:32:00,31.0,21.0,-100.00,West,268,6.0,9.0,67,0.00,,,-99.99,170.000000,,2013-02-05 17:32:00,
2013-02-05 10:40:00,32.0,20.0,-100.00,West,265,7.0,12.0,62,0.00,,,0.00,311.000000,,2013-02-05 17:40:00,
2013-02-05 11:02:00,32.0,20.0,-100.00,West,265,7.0,12.0,62,0.00,,,0.00,311.000000,,2013-02-05 18:02:00,
2013-02-05 11:11:00,32.0,20.0,-100.00,West,265,7.0,12.0,62,0.00,,,0.00,311.000000,,2013-02-05 18:11:00,
2013-02-05 11:22:00,32.0,20.0,-100.00,West,265,7.0,12.0,62,0.00,,,0.00,311.000000,,2013-02-05 18:22:00,
2013-02-05 11:32:00,32.0,20.0,-100.00,West,265,7.0,12.0,62,0.00,,,0.00,311.000000,,2013-02-05 18:32:00,
2013-02-05 11:40:00,35.0,20.0,-100.00,WSW,254,3.0,8.0,53,0.00,,,0.00,394.000000,,2013-02-05 18:40:00,
2013-02-05 12:02:00,35.0,20.0,-100.00,WSW,254,3.0,8.0,53,0.00,,,0.00,394.000000,,2013-02-05 19:02:00,
2013-02-05 12:11:00,35.0,20.0,-100.00,WSW,254,3.0,8.0,53,0.00,,,0.00,394.000000,,2013-02-05 19:11:00,
2013-02-05 12:21:00,35.0,20.0,-100.00,WSW,254,3.0,8.0,53,0.00,,,0.00,394.000000,,2013-02-05 19:21:00,
2013-02-05 12:32:00,35.0,20.0,-100.00,WSW,254,3.0,8.0,53,0.00,,,0.00,394.000000,,2013-02-05 19:32:00,
2013-02-05 12:40:00,39.0,23.0,-100.00,SW,223,4.0,10.0,52,0.00,,,0.00,586.000000,,2013-02-05 19:40:00,
2013-02-05 13:01:00,39.0,23.0,-100.00,SW,223,4.0,10.0,52,0.00,,,0.00,586.000000,,2013-02-05 20:01:00,
2013-02-05 13:11:00,39.0,23.0,-100.00,SW,223,4.0,10.0,52,0.00,,,0.00,586.000000,,2013-02-05 20:11:00,
2013-02-05 13:21:00,39.0,23.0,-100.00,SW,223,4.0,10.0,52,0.00,,,0.00,586.000000,,2013-02-05 20:21:00,
2013-02-05 13:32:00,39.0,23.0,-100.00,SW,223,4.0,10.0,52,0.00,,,0.00,586.000000,,2013-02-05 20:32:00,
2013-02-05 13:40:00,38.0,23.0,-100.00,South,187,5.0,9.0,54,0.00,,,0.00,374.000000,,2013-02-05 20:40:00,
2013-02-05 14:02:00,38.0,23.0,-100.00,South,187,5.0,9.0,54,0.00,,,0.00,374.000000,,2013-02-05 21:02:00,
2013-02-05 14:11:00,38.0,23.0,-100.00,South,187,5.0,9.0,54,0.00,,,0.00,374.000000,,2013-02-05 21:11:00,
2013-02-05 14:22:00,38.0,23.0,-100.00,South,187,5.0,9.0,54,0.00,,,0.00,374.000000,,2013-02-05 21:22:00,
2013-02-05 14:32:00,38.0,23.0,-100.00,South,187,5.0,9.0,54,0.00,,,0.00,374.000000,,2013-02-05 21:32:00,
2013-02-05 14:40:00,40.0,23.0,-100.00,SSE,160,5.0,12.0,50,0.00,,,0.00,407.000000,,2013-02-05 21:40:00,
2013-02-05 15:01:00,40.0,23.0,-100.00,SSE,160,5.0,12.0,50,0.00,,,0.00,407.000000,,2013-02-05 22:01:00,
2013-02-05 15:11:00,40.0,23.0,-100.00,SSE,160,5.0,12.0,50,0.00,,,0.00,407.000000,,2013-02-05 22:11:00,
2013-02-05 15:21:00,40.0,23.0,-100.00,SSE,160,5.0,12.0,50,0.00,,,0.00,407.000000,,2013-02-05 22:21:00,
2013-02-05 15:32:00,40.0,23.0,-100.00,SSE,160,5.0,12.0,50,0.00,,,0.00,407.000000,,2013-02-05 22:32:00,
2013-02-05 15:40:00,39.0,22.0,-100.00,SSE,161,6.0,9.0,50,0.00,,,0.00,338.000000,,2013-02-05 22:40:00,
2013-02-05 16:02:00,39.0,22.0,-100.00,SSE,161,6.0,9.0,50,0.00,,,0.00,338.000000,,2013-02-05 23:02:00,
2013-02-05 16:11:00,39.0,22.0,-100.00,SSE,161,6.0,9.0,50,0.00,,,0.00,338.000000,,2013-02-05 23:11:00,
2013-02-05 16:22:00,39.0,22.0,-100.00,SSE,161,6.0,9.0,50,0.00,,,0.00,338.000000,,2013-02-05 23:22:00,
2013-02-05 16:32:00,39.0,22.0,-100.00,SSE,161,6.0,9.0,50,0.00,,,0.00,338.000000,,2013-02-05 23:32:00,
2013-02-05 16:40:00,37.0,22.0,-100.00,SE,136,3.0,10.0,55,0.00,,,0.00,164.000000,,2013-02-05 23:40:00,
2013-02-05 17:02:00,37.0,22.0,-100.00,SE,136,3.0,10.0,55,0.00,,,0.00,164.000000,,2013-02-06 00:02:00,
2013-02-05 17:11:00,37.0,22.0,-100.00,SE,136,3.0,10.0,55,0.00,,,0.00,164.000000,,2013-02-06 00:11:00,
2013-02-05 17:22:00,37.0,22.0,-100.00,SE,136,3.0,10.0,55,0.00,,,0.00,164.000000,,2013-02-06 00:22:00,
2013-02-05 17:32:00,37.0,22.0,-100.00,SE,136,3.0,10.0,55,0.00,,,0.00,164.000000,,2013-02-06 00:32:00,
2013-02-05 17:40:00,33.0,23.0,-100.00,ESE,111,2.0,7.0,65,0.00,,,0.00,13.000000,,2013-02-06 00:40:00,
2013-02-05 18:02:00,33.0,23.0,-100.00,ESE,111,2.0,7.0,65,0.00,,,0.00,13.000000,,2013-02-06 01:02:00,
2013-02-05 18:12:00,33.0,23.0,-100.00,ESE,111,2.0,7.0,65,0.00,,,0.00,13.000000,,2013-02-06 01:12:00,
2013-02-05 18:22:00,33.0,23.0,-100.00,ESE,111,2.0,7.0,65,0.00,,,0.00,13.000000,,2013-02-06 01:22:00,
2013-02-05 18:32:00,33.0,23.0,-100.00,ESE,111,2.0,7.0,65,0.00,,,0.00,13.000000,,2013-02-06 01:32:00,
2013-02-05 18:40:00,30.0,22.0,-100.00,North,358,0.0,2.0,72,0.00,,,0.00,0.000000,,2013-02-06 01:40:00,
2013-02-05 19:01:00,30.0,22.0,-100.00,North,358,0.0,2.0,72,0.00,,,0.00,0.000000,,2013-02-06 02:01:00,
2013-02-05 19:11:00,30.0,22.0,-100.00,North,358,0.0,2.0,72,0.00,,,0.00,0.000000,,2013-02-06 02:11:00,
2013-02-05 19:22:00,30.0,22.0,-100.00,North,358,0.0,2.0,72,0.00,,,0.00,0.000000,,2013-02-06 02:22:00,
2013-02-05 19:32:00,30.0,22.0,-100.00,North,358,0.0,2.0,72,0.00,,,0.00,0.000000,,2013-02-06 02:32:00,
2013-02-05 19:40:00,28.0,21.0,-100.00,WNW,289,0.0,2.0,75,0.00,,,0.00,0.000000,,2013-02-06 02:40:00,
2013-02-05 20:03:00,28.0,21.0,-100.00,WNW,289,0.0,2.0,75,0.00,,,0.00,0.000000,,2013-02-06 03:03:00,
2013-02-05 20:12:00,28.0,21.0,-100.00,WNW,289,0.0,2.0,75,0.00,,,0.00,0.000000,,2013-02-06 03:12:00,
2013-02-05 20:22:00,28.0,21.0,-100.00,WNW,289,0.0,2.0,75,0.00,,,0.00,0.000000,,2013-02-06 03:22:00,
2013-02-05 20:32:00,28.0,21.0,-100.00,WNW,289,0.0,2.0,75,0.00,,,0.00,0.000000,,2013-02-06 03:32:00,
2013-02-05 20:40:00,32.0,25.0,-100.00,South,175,2.0,4.0,74,0.00,,,0.00,0.000000,,2013-02-06 03:40:00,
2013-02-05 21:02:00,32.0,25.0,-100.00,South,175,2.0,4.0,74,0.00,,,0.00,0.000000,,2013-02-06 04:02:00,
2013-02-05 21:11:00,32.0,25.0,-100.00,South,175,2.0,4.0,74,0.00,,,0.00,0.000000,,2013-02-06 04:11:00,
2013-02-05 21:21:00,32.0,25.0,-100.00,South,175,2.0,4.0,74,0.00,,,0.00,0.000000,,2013-02-06 04:21:00,
2013-02-05 21:32:00,32.0,25.0,-100.00,South,175,2.0,4.0,74,0.00,,,0.00,0.000000,,2013-02-06 04:32:00,
2013-02-05 21:40:00,33.0,25.0,-100.00,SSW,197,2.0,5.0,71,0.00,,,0.00,0.000000,,2013-02-06 04:40:00,
2013-02-05 22:02:00,33.0,25.0,-100.00,SSW,197,2.0,5.0,71,0.00,,,0.00,0.000000,,2013-02-06 05:02:00,
2013-02-05 22:12:00,33.0,25.0,-100.00,SSW,197,2.0,5.0,71,0.00,,,0.00,0.000000,,2013-02-06 05:12:00,
2013-02-05 22:22:00,33.0,25.0,-100.00,SSW,197,2.0,5.0,71,0.00,,,0.00,0.000000,,2013-02-06 05:22:00,
2013-02-05 22:32:00,33.0,25.0,-100.00,SSW,197,2.0,5.0,71,0.00,,,0.00,0.000000,,2013-02-06 05:32:00,
2013-02-05 22:40:00,33.0,25.0,-100.00,SW,217,2.0,8.0,71,0.00,,,0.00,0.000000,,2013-02-06 05:40:00,
2013-02-05 23:01:00,33.0,25.0,-100.00,SW,217,2.0,8.0,71,0.00,,,0.00,0.000000,,2013-02-06 06:01:00,
2013-02-05 23:11:00,33.0,25.0,-100.00,SW,217,2.0,8.0,71,0.00,,,0.00,0.000000,,2013-02-06 06:11:00,
2013-02-05 23:21:00,33.0,25.0,-100.00,SW,217,2.0,8.0,71,0.00,,,0.00,0.000000,,2013-02-06 06:21:00,
2013-02-05 23:32:00,33.0,25.0,-100.00,SW,217,2.0,8.0,71,0.00,,,0.00,0.000000,,2013-02-06 06:32:00,
2013-02-05 23:40:00,30.0,23.0,-100.00,West,280,2.0,6.0,75,0.00,,,0.00,0.000000,,2013-02-06 06:40:00,